Time,TemperatureF,DewpointF,PressureIn,WindDirection,WindDirectionDegrees,WindSpeedMPH,WindSpeedGustMPH,Humidity,HourlyPrecipIn,Conditions,Clouds,dailyrainin,SoftwareType,DateUTC
2013-06-12 00:01:00,66.7,62.8,29.85,SE,135,0.0,0.0,87,0.00,,---,0.00,VWS V14.00,2013-06-12 04:01:00,
2013-06-12 00:02:00,66.7,62.8,29.85,SE,135,0.0,0.0,87,0.00,,---,0.00,VWS V14.00,2013-06-12 04:02:00,
2013-06-12 00:07:00,66.7,62.8,29.85,SE,135,0.0,0.0,87,0.00,,---,0.00,VWS V14.00,2013-06-12 04:07:00,
2013-06-12 00:12:00,66.7,63.1,29.88,SE,135,0.0,0.0,88,0.00,,---,0.00,VWS V14.00,2013-06-12 04:12:00,
2013-06-12 00:17:00,66.6,62.9,29.88,SE,135,0.0,0.0,88,0.00,,---,0.00,VWS V14.00,2013-06-12 04:17:00,
2013-06-12 00:22:00,66.6,62.9,29.88,SE,135,0.0,0.0,88,0.00,,---,0.00,VWS V14.00,2013-06-12 04:22:00,
2013-06-12 00:27:00,66.4,62.7,29.88,SE,135,0.0,0.0,88,0.00,,---,0.00,VWS V14.00,2013-06-12 04:27:00,
2013-06-12 00:32:00,66.4,62.7,29.88,SE,135,0.0,0.0,88,0.00,,---,0.00,VWS V14.00,2013-06-12 04:32:00,
2013-06-12 00:37:00,66.2,62.9,29.88,SE,135,0.0,0.0,89,0.00,,---,0.00,VWS V14.00,2013-06-12 04:37:00,
2013-06-12 00:42:00,66.2,62.9,29.85,SE,135,0.0,0.0,89,0.00,,---,0.00,VWS V14.00,2013-06-12 04:42:00,
2013-06-12 00:47:00,66.0,62.7,29.85,SE,135,0.0,0.0,89,0.00,,---,0.00,VWS V14.00,2013-06-12 04:47:00,
2013-06-12 00:52:00,66.0,62.7,29.85,SE,135,0.0,0.0,89,0.00,,---,0.00,VWS V14.00,2013-06-12 04:52:00,
2013-06-12 00:57:00,65.8,62.5,29.85,SE,135,0.0,0.0,89,0.00,,---,0.00,VWS V14.00,2013-06-12 04:57:00,
2013-06-12 01:02:00,65.8,62.8,29.85,SE,135,0.0,0.0,90,0.00,,---,0.00,VWS V14.00,2013-06-12 05:02:00,
2013-06-12 01:07:00,65.7,62.7,29.85,SE,135,0.0,0.0,90,0.00,,---,0.00,VWS V14.00,2013-06-12 05:07:00,
2013-06-12 01:13:00,65.5,62.5,29.85,SE,135,0.0,0.0,90,0.00,,---,0.12,VWS V14.00,2013-06-12 05:13:00,
2013-06-12 01:18:00,65.5,62.5,29.85,SE,135,0.0,0.0,90,0.00,,---,0.00,VWS V14.00,2013-06-12 05:18:00,
2013-06-12 01:23:00,65.5,62.5,29.85,SE,135,0.0,0.0,90,0.00,,---,0.00,VWS V14.00,2013-06-12 05:23:00,
2013-06-12 01:28:00,65.3,62.3,29.85,SE,135,0.0,0.0,90,0.00,,---,0.00,VWS V14.00,2013-06-12 05:28:00,
2013-06-12 01:33:00,65.1,62.1,29.85,SE,135,0.0,0.0,90,0.00,,---,0.00,VWS V14.00,2013-06-12 05:33:00,
2013-06-12 01:38:00,65.1,62.4,29.85,SE,135,0.0,0.0,91,0.00,,---,0.00,VWS V14.00,2013-06-12 05:38:00,
2013-06-12 01:43:00,65.1,62.4,29.85,SE,135,0.0,0.0,91,0.00,,---,0.00,VWS V14.00,2013-06-12 05:43:00,
2013-06-12 01:48:00,64.9,62.2,29.85,SE,135,0.0,0.0,91,0.00,,---,0.00,VWS V14.00,2013-06-12 05:48:00,
2013-06-12 01:53:00,64.9,62.2,29.85,SE,135,0.0,0.0,91,0.00,,---,0.00,VWS V14.00,2013-06-12 05:53:00,
2013-06-12 01:58:00,64.8,62.1,29.85,SE,135,0.0,0.0,91,0.00,,---,0.00,VWS V14.00,2013-06-12 05:58:00,
2013-06-12 02:03:00,64.8,62.1,29.85,SE,135,0.0,0.0,91,0.00,,---,0.00,VWS V14.00,2013-06-12 06:03:00,
2013-06-12 02:09:00,64.8,62.1,29.85,SE,135,0.0,0.0,91,0.00,,---,0.00,VWS V14.00,2013-06-12 06:09:00,
2013-06-12 02:14:00,64.8,62.1,29.85,SE,135,0.0,0.0,91,0.00,,---,0.00,VWS V14.00,2013-06-12 06:14:00,
2013-06-12 02:19:00,64.8,62.4,29.85,SE,135,0.0,0.0,92,0.00,,---,0.00,VWS V14.00,2013-06-12 06:19:00,
2013-06-12 02:24:00,64.8,62.4,29.85,SE,135,0.0,0.0,92,0.00,,---,0.00,VWS V14.00,2013-06-12 06:24:00,
2013-06-12 02:29:00,64.6,62.2,29.82,SE,135,0.0,0.0,92,0.00,,---,0.00,VWS V14.00,2013-06-12 06:29:00,
2013-06-12 02:34:00,64.6,62.2,29.82,SE,135,0.0,0.0,92,0.00,,---,0.00,VWS V14.00,2013-06-12 06:34:00,
2013-06-12 02:39:00,64.6,62.2,29.82,SE,135,0.0,0.0,92,0.00,,---,0.00,VWS V14.00,2013-06-12 06:39:00,
2013-06-12 02:44:00,64.8,62.4,29.82,SE,135,0.0,0.0,92,0.00,,---,0.00,VWS V14.00,2013-06-12 06:44:00,
2013-06-12 02:49:00,64.8,62.7,29.82,SE,135,0.0,0.0,93,0.00,,---,0.00,VWS V14.00,2013-06-12 06:49:00,
2013-06-12 02:54:00,64.8,62.4,29.82,SE,135,0.0,0.0,92,0.00,,---,0.00,VWS V14.00,2013-06-12 06:54:00,
2013-06-12 02:59:00,64.8,62.4,29.85,SE,135,0.0,0.0,92,0.00,,---,0.00,VWS V14.00,2013-06-12 06:59:00,
2013-06-12 03:04:00,64.6,62.5,29.85,SE,135,0.0,0.0,93,0.00,,---,0.00,VWS V14.00,2013-06-12 07:04:00,
2013-06-12 03:09:00,64.6,62.5,29.85,SE,135,0.0,0.0,93,0.00,,---,0.00,VWS V14.00,2013-06-12 07:09:00,
2013-06-12 03:14:00,64.6,62.5,29.85,SE,135,0.0,0.0,93,0.00,,---,0.00,VWS V14.00,2013-06-12 07:14:00,
2013-06-12 03:19:00,64.4,62.3,29.85,SE,135,0.0,0.0,93,0.00,,---,0.00,VWS V14.00,2013-06-12 07:19:00,
2013-06-12 03:24:00,64.4,62.3,29.85,SE,135,0.0,0.0,93,0.00,,---,0.00,VWS V14.00,2013-06-12 07:24:00,
2013-06-12 06:11:00,64.8,63.0,29.88,NW,315,0.0,0.0,94,0.00,,---,0.00,VWS V14.00,2013-06-12 10:11:00,
2013-06-12 06:16:00,64.8,63.0,29.88,NW,315,0.0,0.0,94,0.00,,---,0.00,VWS V14.00,2013-06-12 10:16:00,
2013-06-12 06:21:00,64.9,63.2,29.88,NW,315,0.0,0.0,94,0.00,,---,0.00,VWS V14.00,2013-06-12 10:21:00,
2013-06-12 06:26:00,64.9,63.2,29.88,West,270,0.0,0.0,94,0.00,,---,0.00,VWS V14.00,2013-06-12 10:26:00,
2013-06-12 06:31:00,64.9,63.2,29.88,West,270,0.0,0.0,94,0.00,,---,0.00,VWS V14.00,2013-06-12 10:31:00,
2013-06-12 06:36:00,65.1,63.3,29.88,West,270,0.0,0.0,94,0.00,,---,0.00,VWS V14.00,2013-06-12 10:36:00,
2013-06-12 06:41:00,65.1,63.7,29.88,West,270,0.0,0.0,95,0.00,,---,0.00,VWS V14.00,2013-06-12 10:41:00,
2013-06-12 06:47:00,65.3,63.8,29.88,West,270,0.0,0.0,95,0.00,,---,0.00,VWS V14.00,2013-06-12 10:47:00,
2013-06-12 06:52:00,65.5,64.0,29.88,West,270,0.0,0.0,95,0.00,,---,0.00,VWS V14.00,2013-06-12 10:52:00,
2013-06-12 06:57:00,65.5,64.0,29.88,West,270,0.0,0.0,95,0.00,,---,0.00,VWS V14.00,2013-06-12 10:57:00,
2013-06-12 07:02:00,65.7,64.2,29.88,West,270,0.0,0.0,95,0.00,,---,0.00,VWS V14.00,2013-06-12 11:02:00,
2013-06-12 07:07:00,65.7,64.2,29.88,WSW,248,0.0,0.0,95,0.00,,---,0.00,VWS V14.00,2013-06-12 11:07:00,
2013-06-12 07:12:00,65.8,64.1,29.88,WSW,248,0.0,0.0,94,0.00,,---,0.00,VWS V14.00,2013-06-12 11:12:00,
2013-06-12 07:17:00,66.0,64.2,29.88,WSW,248,0.0,0.0,94,0.00,,---,0.00,VWS V14.00,2013-06-12 11:17:00,
2013-06-12 07:22:00,66.0,64.2,29.88,WSW,248,0.0,0.0,94,0.00,,---,0.00,VWS V14.00,2013-06-12 11:22:00,
2013-06-12 07:27:00,66.2,64.4,29.88,WSW,248,0.0,0.0,94,0.00,,---,0.00,VWS V14.00,2013-06-12 11:27:00,
2013-06-12 07:32:00,66.2,64.4,29.88,WSW,248,0.0,0.0,94,0.00,,---,0.00,VWS V14.00,2013-06-12 11:32:00,
2013-06-12 07:38:00,66.4,64.6,29.88,WSW,248,0.0,0.0,94,0.00,,---,0.00,VWS V14.00,2013-06-12 11:38:00,
2013-06-12 07:43:00,66.6,64.8,29.88,WSW,248,0.0,0.0,94,0.00,,---,0.00,VWS V14.00,2013-06-12 11:43:00,
2013-06-12 07:48:00,66.7,65.0,29.88,WSW,248,0.0,0.0,94,0.00,,---,0.00,VWS V14.00,2013-06-12 11:48:00,
2013-06-12 07:53:00,66.9,65.1,29.88,WSW,248,0.0,0.0,94,0.00,,---,0.00,VWS V14.00,2013-06-12 11:53:00,
2013-06-12 07:58:00,66.9,64.8,29.85,WSW,248,0.0,0.0,93,0.00,,---,0.00,VWS V14.00,2013-06-12 11:58:00,
2013-06-12 08:03:00,67.1,65.0,29.85,WSW,248,0.0,0.0,93,0.00,,---,0.00,VWS V14.00,2013-06-12 12:03:00,
2013-06-12 08:08:00,67.3,65.2,29.85,NNW,338,0.0,0.0,93,0.00,,---,0.00,VWS V14.00,2013-06-12 12:08:00,
2013-06-12 08:13:00,67.5,65.4,29.88,SSW,202,0.0,0.0,93,0.00,,---,0.00,VWS V14.00,2013-06-12 12:13:00,
2013-06-12 08:18:00,67.6,65.6,29.88,South,180,0.0,0.0,93,0.00,,---,0.00,VWS V14.00,2013-06-12 12:18:00,
2013-06-12 08:23:00,67.8,65.7,29.88,South,180,0.0,0.0,93,0.00,,---,0.00,VWS V14.00,2013-06-12 12:23:00,
2013-06-12 08:28:00,68.0,65.6,29.85,South,180,0.0,0.0,92,0.00,,---,0.00,VWS V14.00,2013-06-12 12:28:00,
2013-06-12 08:33:00,68.4,65.9,29.85,South,180,0.0,0.0,92,0.00,,---,0.00,VWS V14.00,2013-06-12 12:33:00,
2013-06-12 08:38:00,68.4,65.9,29.85,South,180,0.0,0.0,92,0.00,,---,0.00,VWS V14.00,2013-06-12 12:38:00,
2013-06-12 08:43:00,68.7,66.0,29.88,South,180,0.0,0.0,91,0.00,,---,0.00,VWS V14.00,2013-06-12 12:43:00,
2013-06-12 08:48:00,68.7,66.0,29.88,South,180,0.0,0.0,91,0.00,,---,0.00,VWS V14.00,2013-06-12 12:48:00,
2013-06-12 08:53:00,68.9,66.2,29.88,SSE,158,0.0,0.0,91,0.00,,---,0.00,VWS V14.00,2013-06-12 12:53:00,
2013-06-12 08:58:00,69.1,66.0,29.88,South,180,0.0,0.0,90,0.00,,---,0.00,VWS V14.00,2013-06-12 12:58:00,
2013-06-12 09:03:00,69.1,66.0,29.88,SSE,158,0.0,0.0,90,0.00,,---,0.00,VWS V14.00,2013-06-12 13:03:00,
2013-06-12 09:08:00,69.3,66.2,29.88,South,180,0.0,0.0,90,0.00,,---,0.00,VWS V14.00,2013-06-12 13:08:00,
2013-06-12 09:14:00,69.4,66.1,29.85,ESE,112,0.0,0.0,89,0.00,,---,0.00,VWS V14.00,2013-06-12 13:14:00,
2013-06-12 09:19:00,69.4,66.1,29.85,SE,135,0.0,0.0,89,0.00,,---,0.00,VWS V14.00,2013-06-12 13:19:00,
2013-06-12 09:24:00,69.4,66.1,29.85,South,180,1.3,1.6,89,0.00,,---,0.00,VWS V14.00,2013-06-12 13:24:00,
2013-06-12 09:29:00,69.4,65.4,29.85,SSE,158,1.3,2.2,87,0.00,,---,0.00,VWS V14.00,2013-06-12 13:29:00,
2013-06-12 09:34:00,69.6,65.2,29.85,SSE,158,0.0,0.0,86,0.00,,---,0.00,VWS V14.00,2013-06-12 13:34:00,
2013-06-12 09:39:00,69.8,65.1,29.85,South,180,0.0,0.0,85,0.00,,---,0.00,VWS V14.00,2013-06-12 13:39:00,
2013-06-12 09:44:00,70.2,65.4,29.88,SW,225,0.0,0.0,85,0.00,,---,0.00,VWS V14.00,2013-06-12 13:44:00,
2013-06-12 09:49:00,70.3,65.3,29.88,South,180,0.0,0.0,84,0.00,,---,0.00,VWS V14.00,2013-06-12 13:49:00,
2013-06-12 09:54:00,70.5,65.8,29.88,SW,225,0.0,0.0,85,0.00,,---,0.00,VWS V14.00,2013-06-12 13:54:00,
2013-06-12 09:59:00,70.7,65.6,29.88,SW,225,0.0,0.0,84,0.00,,---,0.00,VWS V14.00,2013-06-12 13:59:00,
2013-06-12 10:04:00,71.1,65.6,29.88,SW,225,0.0,0.0,83,0.00,,---,0.00,VWS V14.00,2013-06-12 14:04:00,
2013-06-12 10:09:00,71.1,65.6,29.88,SW,225,0.0,0.0,83,0.00,,---,0.00,VWS V14.00,2013-06-12 14:09:00,
2013-06-12 10:15:00,71.2,65.5,29.88,SW,225,0.0,0.0,82,0.00,,---,0.00,VWS V14.00,2013-06-12 14:15:00,
2013-06-12 10:20:00,71.2,65.5,29.88,SW,225,0.0,0.0,82,0.00,,---,0.00,VWS V14.00,2013-06-12 14:20:00,
2013-06-12 10:25:00,71.4,65.6,29.88,SW,225,0.0,0.0,82,0.00,,---,0.00,VWS V14.00,2013-06-12 14:25:00,
2013-06-12 10:30:00,71.8,66.0,29.91,SW,225,0.0,0.0,82,0.00,,---,0.00,VWS V14.00,2013-06-12 14:30:00,
2013-06-12 10:35:00,72.3,66.2,29.91,SW,225,0.0,1.3,81,0.00,,---,0.00,VWS V14.00,2013-06-12 14:35:00,
2013-06-12 10:40:00,73.0,67.2,29.88,SSE,158,2.5,2.9,82,0.00,,---,0.00,VWS V14.00,2013-06-12 14:40:00,
2013-06-12 10:45:00,73.2,66.3,29.88,SSE,158,2.0,2.0,79,0.00,,---,0.00,VWS V14.00,2013-06-12 14:45:00,
2013-06-12 10:50:00,73.4,66.1,29.88,East,90,0.0,0.0,78,0.00,,---,0.00,VWS V14.00,2013-06-12 14:50:00,
2013-06-12 10:55:00,73.4,66.1,29.88,SSE,158,2.7,2.7,78,0.00,,---,0.00,VWS V14.00,2013-06-12 14:55:00,
2013-06-12 11:00:00,73.6,65.9,29.88,SSE,158,2.9,4.0,77,0.00,,---,0.00,VWS V14.00,2013-06-12 15:00:00,
2013-06-12 11:05:00,73.9,65.1,29.88,SE,135,0.0,1.3,74,0.00,,---,0.00,VWS V14.00,2013-06-12 15:05:00,
2013-06-12 11:10:00,74.5,65.7,29.88,West,270,2.9,2.9,74,0.00,,---,0.00,VWS V14.00,2013-06-12 15:10:00,
2013-06-12 11:15:00,75.2,66.3,29.88,SE,135,2.5,4.3,74,0.00,,---,0.00,VWS V14.00,2013-06-12 15:15:00,
2013-06-12 11:20:00,75.4,65.7,29.88,South,180,3.4,3.4,72,0.00,,---,0.00,VWS V14.00,2013-06-12 15:20:00,
2013-06-12 11:25:00,75.6,65.1,29.88,SW,225,0.9,0.9,70,0.00,,---,0.00,VWS V14.00,2013-06-12 15:25:00,
2013-06-12 11:31:00,75.9,64.2,29.88,SSE,158,5.8,5.8,67,0.00,,---,0.00,VWS V14.00,2013-06-12 15:31:00,
2013-06-12 11:36:00,75.9,63.3,29.88,SSE,158,4.7,4.7,65,0.00,,---,0.00,VWS V14.00,2013-06-12 15:36:00,
2013-06-12 11:41:00,76.5,64.7,29.85,SSW,202,1.1,2.0,67,0.00,,---,0.00,VWS V14.00,2013-06-12 15:41:00,
2013-06-12 11:46:00,76.8,64.2,29.85,SE,135,4.3,4.3,65,0.00,,---,0.00,VWS V14.00,2013-06-12 15:46:00,
2013-06-12 11:51:00,77.2,64.1,29.85,SSE,158,1.3,2.5,64,0.00,,---,0.00,VWS V14.00,2013-06-12 15:51:00,
2013-06-12 11:56:00,77.9,65.6,29.82,SSE,158,3.8,5.4,66,0.00,,---,0.00,VWS V14.00,2013-06-12 15:56:00,
2013-06-12 12:01:00,78.4,65.7,29.82,SSE,158,1.3,5.4,65,0.00,,---,0.00,VWS V14.00,2013-06-12 16:01:00,
2013-06-12 12:06:00,78.8,66.1,29.82,NE,45,2.0,2.0,65,0.00,,---,0.00,VWS V14.00,2013-06-12 16:06:00,
2013-06-12 12:11:00,78.6,65.9,29.82,South,180,4.0,4.0,65,0.00,,---,0.00,VWS V14.00,2013-06-12 16:11:00,
2013-06-12 12:16:00,78.3,64.6,29.82,SSE,158,3.4,3.4,63,0.00,,---,0.00,VWS V14.00,2013-06-12 16:16:00,
2013-06-12 12:21:00,77.7,64.1,29.82,SE,135,2.0,6.5,63,0.00,,---,0.00,VWS V14.00,2013-06-12 16:21:00,
2013-06-12 12:26:00,77.2,63.6,29.79,SSE,158,4.0,6.5,63,0.00,,---,0.00,VWS V14.00,2013-06-12 16:26:00,
2013-06-12 12:32:00,76.8,63.7,29.79,WSW,248,1.6,1.6,64,0.00,,---,0.00,VWS V14.00,2013-06-12 16:32:00,
2013-06-12 12:37:00,77.0,64.8,29.79,SW,225,0.0,0.0,66,0.00,,---,0.00,VWS V14.00,2013-06-12 16:37:00,
2013-06-12 12:42:00,77.4,65.6,29.82,SW,225,0.0,0.0,67,0.00,,---,0.00,VWS V14.00,2013-06-12 16:42:00,
2013-06-12 12:47:00,77.9,66.1,29.82,SSE,158,0.0,0.0,67,0.00,,---,0.00,VWS V14.00,2013-06-12 16:47:00,
2013-06-12 12:52:00,78.1,65.8,29.82,WSW,248,2.9,2.9,66,0.00,,---,0.00,VWS V14.00,2013-06-12 16:52:00,
2013-06-12 12:57:00,77.9,66.1,29.82,South,180,1.3,1.6,67,0.00,,---,0.00,VWS V14.00,2013-06-12 16:57:00,
2013-06-12 13:02:00,77.9,66.1,15.18,SSW,202,2.7,2.7,67,0.00,,---,0.00,VWS V14.00,2013-06-12 17:02:00,
2013-06-12 13:07:00,78.1,65.8,29.82,SE,135,4.3,4.3,66,0.00,,---,0.00,VWS V14.00,2013-06-12 17:07:00,
2013-06-12 13:12:00,78.8,66.9,29.82,ESE,112,2.0,5.4,67,0.00,,---,0.00,VWS V14.00,2013-06-12 17:12:00,
2013-06-12 13:17:00,79.0,66.7,29.82,ESE,112,1.1,2.9,66,0.00,,---,0.00,VWS V14.00,2013-06-12 17:17:00,
2013-06-12 13:22:00,79.0,66.7,29.82,SSE,158,2.5,2.5,66,0.00,,---,0.00,VWS V14.00,2013-06-12 17:22:00,
2013-06-12 13:27:00,79.2,66.8,29.79,SSE,158,1.6,1.6,66,0.00,,---,0.00,VWS V14.00,2013-06-12 17:27:00,
2013-06-12 13:33:00,79.0,67.1,29.79,ENE,68,0.9,0.9,67,0.00,,---,0.00,VWS V14.00,2013-06-12 17:33:00,
2013-06-12 13:38:00,78.6,66.8,29.79,SE,135,0.0,0.0,67,0.00,,---,0.00,VWS V14.00,2013-06-12 17:38:00,
2013-06-12 13:43:00,78.4,66.6,29.82,NE,45,1.6,1.6,67,0.00,,---,0.00,VWS V14.00,2013-06-12 17:43:00,
2013-06-12 13:48:00,78.3,66.4,29.82,SE,135,0.0,0.0,67,0.00,,---,0.00,VWS V14.00,2013-06-12 17:48:00,
2013-06-12 13:53:00,78.1,66.2,29.82,ENE,68,0.0,0.0,67,0.00,,---,0.00,VWS V14.00,2013-06-12 17:53:00,
2013-06-12 13:58:00,78.1,66.7,29.82,NE,45,0.0,0.0,68,0.00,,---,0.00,VWS V14.00,2013-06-12 17:58:00,
2013-06-12 14:03:00,77.9,66.9,29.82,NE,45,0.0,0.0,69,0.00,,---,0.00,VWS V14.00,2013-06-12 18:03:00,
2013-06-12 14:08:00,78.1,67.1,29.82,NE,45,0.0,0.0,69,0.00,,---,0.00,VWS V14.00,2013-06-12 18:08:00,
2013-06-12 14:13:00,78.4,67.4,29.79,SSE,158,2.0,2.0,69,0.00,,---,0.00,VWS V14.00,2013-06-12 18:13:00,
2013-06-12 14:19:00,78.8,67.8,29.79,SE,135,1.3,2.0,69,0.00,,---,0.00,VWS V14.00,2013-06-12 18:19:00,
2013-06-12 14:24:00,78.8,67.4,29.79,SSW,202,0.0,2.0,68,0.00,,---,0.00,VWS V14.00,2013-06-12 18:24:00,
2013-06-12 14:29:00,78.4,67.0,29.76,SSE,158,0.0,0.0,68,0.00,,---,0.00,VWS V14.00,2013-06-12 18:29:00,
2013-06-12 14:34:00,78.4,67.0,29.76,SSE,158,0.0,0.0,68,0.00,,---,0.00,VWS V14.00,2013-06-12 18:34:00,
2013-06-12 14:39:00,78.6,67.2,29.76,SE,135,0.0,2.7,68,0.00,,---,0.00,VWS V14.00,2013-06-12 18:39:00,
2013-06-12 14:44:00,78.8,67.4,29.76,SSE,158,2.2,2.2,68,0.00,,---,0.00,VWS V14.00,2013-06-12 18:44:00,
2013-06-12 14:49:00,78.6,67.6,29.76,East,90,0.0,1.1,69,0.00,,---,0.00,VWS V14.00,2013-06-12 18:49:00,
2013-06-12 14:54:00,78.4,67.4,29.76,SSE,158,2.9,2.9,69,0.00,,---,0.00,VWS V14.00,2013-06-12 18:54:00,
2013-06-12 14:59:00,78.4,67.4,29.76,South,180,0.0,0.0,69,0.00,,---,0.00,VWS V14.00,2013-06-12 18:59:00,
2013-06-12 15:04:00,78.6,68.0,29.76,South,180,2.7,2.7,70,0.00,,---,0.00,VWS V14.00,2013-06-12 19:04:00,
2013-06-12 15:09:00,78.8,67.8,29.76,NNW,338,1.1,1.1,69,0.00,,---,0.00,VWS V14.00,2013-06-12 19:09:00,
2013-06-12 15:14:00,79.2,68.1,29.74,SSE,158,0.9,1.3,69,0.00,,---,0.00,VWS V14.00,2013-06-12 19:14:00,
2013-06-12 15:20:00,79.3,68.3,29.74,NE,45,0.0,0.0,69,0.00,,---,0.00,VWS V14.00,2013-06-12 19:20:00,
2013-06-12 15:25:00,78.8,67.4,29.74,NE,45,0.0,0.0,68,0.00,,---,0.00,VWS V14.00,2013-06-12 19:25:00,
2013-06-12 15:30:00,78.3,67.3,29.76,NNE,22,0.0,0.0,69,0.00,,---,0.00,VWS V14.00,2013-06-12 19:30:00,
2013-06-12 15:35:00,77.7,67.2,29.76,North,0,0.0,0.0,70,0.00,,---,0.00,VWS V14.00,2013-06-12 19:35:00,
2013-06-12 15:40:00,77.4,66.8,29.76,SSE,158,0.0,0.0,70,0.00,,---,0.00,VWS V14.00,2013-06-12 19:40:00,
2013-06-12 15:45:00,77.2,67.1,29.79,NNW,338,0.0,0.0,71,0.00,,---,0.00,VWS V14.00,2013-06-12 19:45:00,
2013-06-12 15:50:00,77.0,67.3,29.79,NNW,338,0.0,0.0,72,0.00,,---,0.00,VWS V14.00,2013-06-12 19:50:00,
2013-06-12 15:55:00,77.0,67.3,29.79,North,0,0.0,0.0,72,0.00,,---,0.00,VWS V14.00,2013-06-12 19:55:00,
2013-06-12 16:00:00,77.5,68.2,29.79,NNW,338,0.0,0.0,73,0.00,,---,0.00,VWS V14.00,2013-06-12 20:00:00,
2013-06-12 16:05:00,78.1,68.3,29.79,North,0,0.0,1.3,72,0.00,,---,0.00,VWS V14.00,2013-06-12 20:05:00,
2013-06-12 16:10:00,78.1,68.3,29.79,ENE,68,0.0,0.0,72,0.00,,---,0.00,VWS V14.00,2013-06-12 20:10:00,
2013-06-12 16:16:00,77.9,68.2,29.79,NE,45,0.0,0.0,72,0.00,,---,0.00,VWS V14.00,2013-06-12 20:16:00,
2013-06-12 16:21:00,77.7,68.0,29.79,ESE,112,0.0,0.0,72,0.00,,---,0.00,VWS V14.00,2013-06-12 20:21:00,
2013-06-12 16:26:00,77.7,68.0,29.82,North,0,0.0,0.0,72,0.00,,---,0.00,VWS V14.00,2013-06-12 20:26:00,
2013-06-12 16:31:00,77.5,67.8,29.82,North,0,0.0,0.0,72,0.00,,---,0.00,VWS V14.00,2013-06-12 20:31:00,
2013-06-12 16:36:00,77.4,67.2,29.82,NNW,338,0.0,0.0,71,0.00,,---,0.00,VWS V14.00,2013-06-12 20:36:00,
2013-06-12 16:41:00,77.2,67.5,29.79,NE,45,0.0,0.0,72,0.00,,---,0.00,VWS V14.00,2013-06-12 20:41:00,
2013-06-12 16:46:00,77.4,67.6,29.79,NE,45,0.0,0.0,72,0.00,,---,0.00,VWS V14.00,2013-06-12 20:46:00,
2013-06-12 16:51:00,77.9,68.6,29.79,NE,45,1.6,2.0,73,0.00,,---,0.00,VWS V14.00,2013-06-12 20:51:00,
2013-06-12 16:56:00,78.6,69.2,29.76,NE,45,0.0,0.0,73,0.00,,---,0.00,VWS V14.00,2013-06-12 20:56:00,
2013-06-12 17:01:00,78.8,69.4,29.76,SSE,158,1.3,1.3,73,0.00,,---,0.00,VWS V14.00,2013-06-12 21:01:00,
2013-06-12 17:06:00,79.2,69.4,29.76,NNE,22,0.0,0.0,72,0.00,,---,0.00,VWS V14.00,2013-06-12 21:06:00,
2013-06-12 17:11:00,79.2,68.5,29.76,NE,45,1.1,1.6,70,0.00,,---,0.00,VWS V14.00,2013-06-12 21:11:00,
2013-06-12 17:16:00,79.2,68.5,29.76,North,0,1.3,1.6,70,0.00,,---,0.00,VWS V14.00,2013-06-12 21:16:00,
2013-06-12 17:21:00,79.2,68.5,29.76,ENE,68,0.9,1.6,70,0.00,,---,0.00,VWS V14.00,2013-06-12 21:21:00,
2013-06-12 17:27:00,79.2,68.5,29.76,SSE,158,0.9,1.1,70,0.00,,---,0.00,VWS V14.00,2013-06-12 21:27:00,
2013-06-12 17:32:00,78.8,68.2,29.76,SSE,158,0.0,0.0,70,0.00,,---,0.00,VWS V14.00,2013-06-12 21:32:00,
2013-06-12 17:37:00,78.8,68.6,29.76,NE,45,0.0,0.0,71,0.00,,---,0.00,VWS V14.00,2013-06-12 21:37:00,
2013-06-12 17:42:00,78.8,68.6,29.76,NE,45,0.0,0.0,71,0.00,,---,0.00,VWS V14.00,2013-06-12 21:42:00,
2013-06-12 17:47:00,79.0,68.8,29.76,South,180,1.1,2.5,71,0.00,,---,0.00,VWS V14.00,2013-06-12 21:47:00,
2013-06-12 17:52:00,79.2,68.9,29.76,NE,45,0.0,0.0,71,0.00,,---,0.00,VWS V14.00,2013-06-12 21:52:00,
2013-06-12 17:57:00,79.2,69.4,29.76,ENE,68,1.6,1.6,72,0.00,,---,0.00,VWS V14.00,2013-06-12 21:57:00,
2013-06-12 18:02:00,79.3,69.1,29.76,ENE,68,0.0,0.0,71,0.00,,---,0.00,VWS V14.00,2013-06-12 22:02:00,
2013-06-12 18:07:00,79.5,69.3,29.76,ESE,112,1.6,4.0,71,0.00,,---,0.00,VWS V14.00,2013-06-12 22:07:00,
2013-06-12 18:12:00,79.3,68.7,29.74,NE,45,2.5,2.5,70,0.00,,---,0.00,VWS V14.00,2013-06-12 22:12:00,
2013-06-12 18:17:00,79.3,69.1,29.74,SSE,158,0.0,0.0,71,0.00,,---,0.00,VWS V14.00,2013-06-12 22:17:00,
2013-06-12 18:22:00,79.2,68.9,29.74,East,90,0.0,0.0,71,0.00,,---,0.00,VWS V14.00,2013-06-12 22:22:00,
2013-06-12 18:28:00,79.2,69.4,29.74,ESE,112,2.5,2.5,72,0.00,,---,0.00,VWS V14.00,2013-06-12 22:28:00,
2013-06-12 18:33:00,79.2,68.9,29.74,SSE,158,2.9,3.6,71,0.00,,---,0.00,VWS V14.00,2013-06-12 22:33:00,
2013-06-12 18:38:00,79.0,68.8,29.74,SE,135,1.3,1.3,71,0.00,,---,0.00,VWS V14.00,2013-06-12 22:38:00,
2013-06-12 18:43:00,79.0,69.2,29.71,ENE,68,0.0,0.0,72,0.00,,---,0.00,VWS V14.00,2013-06-12 22:43:00,
2013-06-12 18:48:00,78.6,68.8,29.71,NNE,22,0.0,0.0,72,0.00,,---,0.00,VWS V14.00,2013-06-12 22:48:00,
2013-06-12 18:53:00,78.3,68.5,29.71,SSE,158,1.6,2.5,72,0.00,,---,0.00,VWS V14.00,2013-06-12 22:53:00,
2013-06-12 18:58:00,78.1,68.7,29.74,ENE,68,0.0,0.0,73,0.00,,---,0.00,VWS V14.00,2013-06-12 22:58:00,
2013-06-12 19:03:00,78.1,68.7,29.74,NE,45,0.0,1.3,73,0.00,,---,0.00,VWS V14.00,2013-06-12 23:03:00,
2013-06-12 19:08:00,77.9,68.9,29.74,NE,45,0.0,0.0,74,0.00,,---,0.00,VWS V14.00,2013-06-12 23:08:00,
2013-06-12 19:13:00,77.5,68.2,29.71,ESE,112,0.0,0.0,73,0.00,,---,0.00,VWS V14.00,2013-06-12 23:13:00,
2013-06-12 19:18:00,77.2,68.3,29.71,SE,135,0.0,0.0,74,0.00,,---,0.00,VWS V14.00,2013-06-12 23:18:00,
2013-06-12 19:24:00,77.0,68.1,29.71,SE,135,0.0,0.0,74,0.00,,---,0.00,VWS V14.00,2013-06-12 23:24:00,
2013-06-12 19:29:00,76.8,68.3,29.74,ESE,112,0.0,0.0,75,0.00,,---,0.00,VWS V14.00,2013-06-12 23:29:00,
2013-06-12 19:34:00,76.8,68.3,29.74,ESE,112,0.0,0.0,75,0.00,,---,0.00,VWS V14.00,2013-06-12 23:34:00,
2013-06-12 19:39:00,76.6,68.5,29.74,NE,45,0.0,0.0,76,0.00,,---,0.00,VWS V14.00,2013-06-12 23:39:00,
2013-06-12 19:44:00,76.5,67.9,29.71,South,180,2.0,2.5,75,0.00,,---,0.00,VWS V14.00,2013-06-12 23:44:00,
2013-06-12 19:49:00,76.5,67.9,29.71,East,90,0.0,0.0,75,0.00,,---,0.00,VWS V14.00,2013-06-12 23:49:00,
2013-06-12 19:54:00,76.3,68.2,29.71,SSE,158,1.3,1.3,76,0.00,,---,0.00,VWS V14.00,2013-06-12 23:54:00,
2013-06-12 19:59:00,76.1,68.0,29.71,NE,45,1.3,2.7,76,0.00,,---,0.00,VWS V14.00,2013-06-12 23:59:00,
2013-06-12 20:04:00,75.9,67.8,29.71,ENE,68,1.3,1.6,76,0.00,,---,0.00,VWS V14.00,2013-06-13 00:04:00,
2013-06-12 20:09:00,75.7,67.6,29.71,SSE,158,0.0,0.0,76,0.00,,---,0.00,VWS V14.00,2013-06-13 00:09:00,
2013-06-12 20:14:00,75.7,68.0,29.68,SSE,158,0.9,2.5,77,0.00,,---,0.00,VWS V14.00,2013-06-13 00:14:00,
2013-06-12 20:19:00,75.6,67.8,29.68,East,90,1.3,1.3,77,0.00,,---,0.00,VWS V14.00,2013-06-13 00:19:00,
2013-06-12 20:24:00,75.4,67.7,29.68,East,90,0.0,0.0,77,0.00,,---,0.00,VWS V14.00,2013-06-13 00:24:00,
2013-06-12 20:29:00,75.2,67.5,29.65,NE,45,0.0,1.6,77,0.00,,---,0.00,VWS V14.00,2013-06-13 00:29:00,
2013-06-12 20:34:00,75.2,67.9,29.65,SSE,158,0.0,3.1,78,0.00,,---,0.00,VWS V14.00,2013-06-13 00:34:00,
2013-06-12 20:39:00,75.0,67.7,29.65,SSE,158,0.9,2.7,78,0.00,,---,0.00,VWS V14.00,2013-06-13 00:39:00,
2013-06-12 20:44:00,74.8,67.5,29.65,ENE,68,0.0,0.0,78,0.00,,---,0.00,VWS V14.00,2013-06-13 00:44:00,
2013-06-12 20:49:00,74.8,67.9,29.65,ENE,68,0.0,0.0,79,0.00,,---,0.00,VWS V14.00,2013-06-13 00:49:00,
2013-06-12 20:54:00,74.7,67.7,29.65,SSE,158,0.0,2.5,79,0.00,,---,0.00,VWS V14.00,2013-06-13 00:54:00,
2013-06-12 20:59:00,74.7,67.7,29.65,SSE,158,2.2,2.2,79,0.00,,---,0.00,VWS V14.00,2013-06-13 00:59:00,
2013-06-12 21:05:00,74.5,67.6,29.65,South,180,2.0,2.0,79,0.00,,---,0.00,VWS V14.00,2013-06-13 01:05:00,
2013-06-12 21:10:00,74.5,67.6,29.65,East,90,0.0,1.1,79,0.00,,---,0.00,VWS V14.00,2013-06-13 01:10:00,
2013-06-12 21:15:00,74.5,67.6,29.62,NE,45,0.0,1.3,79,0.00,,---,0.00,VWS V14.00,2013-06-13 01:15:00,
2013-06-12 21:20:00,74.3,67.7,29.62,South,180,1.1,2.5,80,0.00,,---,0.00,VWS V14.00,2013-06-13 01:20:00,
2013-06-12 21:25:00,74.3,67.7,29.62,SSE,158,0.0,1.1,80,0.00,,---,0.00,VWS V14.00,2013-06-13 01:25:00,
2013-06-12 21:30:00,74.3,67.7,29.65,SSE,158,2.5,2.5,80,0.00,,---,0.00,VWS V14.00,2013-06-13 01:30:00,
2013-06-12 21:35:00,74.3,67.7,29.65,ENE,68,1.3,3.4,80,0.00,,---,0.00,VWS V14.00,2013-06-13 01:35:00,
2013-06-12 21:40:00,74.1,67.6,29.65,SE,135,2.7,2.7,80,0.00,,---,0.00,VWS V14.00,2013-06-13 01:40:00,
2013-06-12 21:46:00,73.9,67.4,29.65,South,180,1.1,1.1,80,0.00,,---,0.00,VWS V14.00,2013-06-13 01:46:00,
2013-06-12 21:51:00,73.9,67.8,29.65,SSE,158,0.9,0.9,81,0.00,,---,0.00,VWS V14.00,2013-06-13 01:51:00,
2013-06-12 21:56:00,73.8,67.6,29.62,NE,45,0.0,0.9,81,0.00,,---,0.00,VWS V14.00,2013-06-13 01:56:00,
2013-06-12 22:01:00,73.8,67.6,29.62,SW,225,0.0,0.0,81,0.00,,---,0.00,VWS V14.00,2013-06-13 02:01:00,
2013-06-12 22:06:00,73.6,67.4,29.62,ESE,112,0.0,1.6,81,0.00,,---,0.00,VWS V14.00,2013-06-13 02:06:00,
2013-06-12 22:11:00,73.6,67.8,29.59,South,180,2.0,2.7,82,0.00,,---,0.00,VWS V14.00,2013-06-13 02:11:00,
2013-06-12 22:16:00,73.6,67.8,29.59,South,180,1.3,3.4,82,0.00,,---,0.00,VWS V14.00,2013-06-13 02:16:00,
2013-06-12 22:21:00,73.6,67.8,29.59,South,180,0.0,1.3,82,0.00,,---,0.00,VWS V14.00,2013-06-13 02:21:00,
2013-06-12 22:26:00,73.4,67.6,29.62,ESE,112,0.0,2.7,82,0.00,,---,0.00,VWS V14.00,2013-06-13 02:26:00,
2013-06-12 22:32:00,73.4,67.9,29.62,South,180,0.0,0.0,83,0.00,,---,0.00,VWS V14.00,2013-06-13 02:32:00,
2013-06-12 22:37:00,73.4,67.9,29.62,SSE,158,0.0,0.0,83,0.00,,---,0.00,VWS V14.00,2013-06-13 02:37:00,
2013-06-12 22:42:00,73.4,68.3,29.59,SE,135,4.5,4.5,84,0.00,,---,0.00,VWS V14.00,2013-06-13 02:42:00,
2013-06-12 22:47:00,73.6,68.8,29.59,SSE,158,3.6,3.6,85,0.00,,---,0.00,VWS V14.00,2013-06-13 02:47:00,
2013-06-12 22:52:00,73.8,69.3,29.59,SSE,158,2.0,2.0,86,0.00,,---,0.00,VWS V14.00,2013-06-13 02:52:00,
2013-06-12 22:57:00,73.8,69.3,29.65,SSE,158,4.3,4.3,86,0.00,,---,0.00,VWS V14.00,2013-06-13 02:57:00,
2013-06-12 23:02:00,73.6,69.5,29.65,WSW,248,0.0,2.5,87,0.00,,---,0.00,VWS V14.00,2013-06-13 03:02:00,
2013-06-12 23:07:00,73.6,69.8,29.65,SW,225,0.0,3.1,88,0.00,,---,0.00,VWS V14.00,2013-06-13 03:07:00,
2013-06-12 23:12:00,73.2,70.1,29.65,West,270,4.0,7.6,90,0.04,,---,0.04,VWS V14.00,2013-06-13 03:12:00,
2013-06-12 23:17:00,69.3,62.1,29.65,WNW,292,3.1,3.8,78,0.04,,---,0.04,VWS V14.00,2013-06-13 03:17:00,
2013-06-12 23:23:00,67.8,61.8,29.65,NNW,338,3.8,3.8,81,0.04,,---,0.04,VWS V14.00,2013-06-13 03:23:00,